LELCLETO

Guest
Details From LELC - Murcia San Javier
To LETO - Torrejon
Flight Number -
Tags Generated
Created
Modified
Stats Distance 204 nm / 377 km
Max Altitude 0 ft / 0 m
Waypoints 2
Social Downloads 1
Likes 0
Share VATSIM

Download

Looking for another format? Having issues loading an existing format? Contact us
Advertisement - Login to hide

Notes

Generated

Route

LELC LETO

ID Type Via Altitude Latitude Longitude Leg Dist Tot Dist Heading (true) Name
O LELC APT - 0 ft / 0 m 37.78675˚ -0.81389˚ - 0 nm - -
O LETO APT - 0 ft / 0 m 40.48477˚ -3.46070˚ 203 nm 203 nm 324° / 322° -

Altitude Profile

Advertisement - Login to hide

Weather


0- 5 10 15 20 25 30 35+ Temperature / ° C

Clouds and Precipitation
Forecast for 2018-05-23 12:00 UTC. Updated 2 hours ago

Ground ~20,000 ft ~40,000 ft Winds

LELC

Details ICAO LELC (MJV)
Name Murcia San Javier
Region Spain
Timezone Europe/Madrid (UTC+2.0)
Stats Elevation 11 ft / 3 m (AMSL)
Location 37.780256° -0.812257°
Runways 3
Magnetic Variation 0.168° E

METAR

LELC 231100Z 07009KT 030V120 9999 FEW044 23/14 Q1017 NOSIG

Decode

TAF

TAF AMD LELC 230608Z 2306/2406 06009KT CAVOK TX22/2314Z TN16/2306Z PROB40 TEMPO 2306/2308 4000 BR SCT005

Decode

Departure Runways

ID Width Length Bearing (true) Bearing (mag) Surface Threshold Offset Overrun Length
05L 164 ft / 50 m 6,553 ft / 1,997 m 45.62° 45.45° Asphalt 656 ft / 200 m 0 ft / 0 m
05R 148 ft / 45 m 7,553 ft / 2,302 m 45.63° 45.46° Asphalt 0 ft / 0 m 656 ft / 200 m
14 197 ft / 60 m 2,657 ft / 810 m 136.05° 135.88° Grass 0 ft / 0 m 0 ft / 0 m
23L 148 ft / 45 m 7,553 ft / 2,302 m 225.65° 225.48° Asphalt 0 ft / 0 m 656 ft / 200 m
23R 164 ft / 50 m 6,553 ft / 1,997 m 225.63° 225.46° Asphalt 656 ft / 200 m 0 ft / 0 m
32 197 ft / 60 m 2,657 ft / 810 m 316.05° 315.88° Grass 0 ft / 0 m 0 ft / 0 m

LETO

Details ICAO LETO (TOJ)
Name Torrejon
Region Spain
Timezone Europe/Madrid (UTC+2.0)
Stats Elevation 2,025 ft / 617 m (AMSL)
Location 40.496746° -3.445870°
Runways 1
Magnetic Variation 0.600° W

METAR

LETO 231100Z 17003KT 120V260 9999 FEW050TCU 25/12 Q1017 NOSIG

Decode

TAF

TAF LETO 230500Z 2306/2406 VRB05KT CAVOK TX27/2315Z TN14/2406Z TEMPO 2314/2319 21010KT PROB30 TEMPO 2316/2317 21010G20KT PROB40 TEMPO 2313/2319 SCT040TCU

Decode

Destination Runways

ID Width Length Bearing (true) Bearing (mag) Surface Threshold Offset Overrun Length
05 217 ft / 66 m 12,004 ft / 3,659 m 43.28° 43.88° Asphalt 0 ft / 0 m 2,739 ft / 835 m
23 217 ft / 66 m 12,004 ft / 3,659 m 223.30° 223.90° Asphalt 0 ft / 0 m 1,066 ft / 325 m

Approach Navaids

Runway Type Ident Frequency Range Bearing (true) Bearing (mag) Slope Elevation
23 Localiser ITJA 109.50 MHz 18 nm / 33 km 223.26° 223.86° - 2,025 ft / 617 m (AMSL)
23 Glidescope ITJA 109.50 MHz 10 nm / 19 km 223.29° 223.89° 3.00° 2,025 ft / 617 m (AMSL)
23 DME ITJA 109.50 MHz 18 nm / 33 km - - - 2,011 ft / 613 m (AMSL)